Location: Ferchesar
(52.6477°N, 12.4298°E)
Time: 13:04:57
(UTC+01:00)

Altair - Pass Details

Date: 09 December 2021
Orbit: 1501 x 1683 km, 47.2° (Epoch: 27 January)

Event Time Altitude Azimuth Distance (km) Brightness Sun altitude
Rises 20:26:49 0° 285° (WNW) 4,696 10.9 -39.6°
Reaches altitude 10° 20:30:18 10° 276° (W) 3,691 10.2 -40.1°
Maximum altitude 20:38:00 31° 219° (SW) 2,398 8.5 -41.2°
Enters shadow 20:38:34 31° 212° (SSW) 2,405 8.5 -41.3°
